DW8722 Weather Reports


time (UTC)temp
F
wind
direction
speed
knots
gust
knots
rain 1hr
in
rain 24hr
in
rain mn
in
humidity
%
barometer
mb
20260505185034 81 196 8.7 16.5 0.00 0.00 0.00 72 1003.8
20260505182854 81 201 8.7 17.4 0.00 0.00 0.00 71 1004.0
20260505181831 81 207 9.6 19.1 0.00 0.00 0.00 72 1004.1
20260505175700 81 202 11.3 22.6 0.00 0.00 0.00 73 1003.9
20260505174647 81 176 9.6 20.9 0.00 0.00 0.00 75 1003.8
20260505173648 79 179 8.7 16.5 0.00 0.00 0.00 76 1003.9
20260505172633 78 181 8.7 21.7 0.00 0.00 0.00 77 1004.1
20260505171648 78 199 10.4 21.7 0.00 0.00 0.00 78 1004.2
20260505164359 76 159 8.7 17.4 0.00 0.00 0.00 80 1003.7
20260505162240 77 221 11.3 25.2 0.00 0.00 0.00 78 1003.9
20260505161215 77 205 10.4 25.2 0.00 0.00 0.00 78 1003.9
20260505160226 77 195 9.6 19.1 0.00 0.00 0.00 79 1004.0
20260505153313 75 180 11.3 20.9 0.00 0.00 0.00 81 1003.7
20260505152243 75 203 12.2 20.9 0.00 0.00 0.00 82 1003.9
20260505151252 74 221 11.3 20.0 0.00 0.00 0.00 82 1004.0
20260505150231 74 200 12.2 24.3 0.00 0.00 0.00 82 1004.0
20260505140118 72 206 12.2 21.7 0.00 0.00 0.00 85 1003.6
20260505130120 71 205 9.6 16.5 0.00 0.00 0.00 86 1003.9
20260505123013 70 169 9.6 19.1 0.00 0.00 0.00 87 1003.6
20260505121947 70 0 7.8 15.6 0.00 0.00 0.00 87 1003.6
20260505120919 70 213 8.7 14.8 0.00 0.00 0.00 86 1003.5
20260505115859 70 187 8.7 20.0 0.00 0.00 0.00 86 1003.3
20260505114857 70 186 8.7 20.0 0.00 0.00 0.00 86 1003.2
20260505113844 70 173 8.7 18.2 0.00 0.00 0.00 86 1003.3
20260505112843 70 188 9.6 15.6 0.00 0.00 0.00 86 1003.3
20260505110656 70 201 9.6 16.5 0.00 0.00 0.00 86 1003.0
20260505101445 70 186 10.4 18.2 0.00 0.00 0.00 86 1003.2
20260505100439 70 194 9.6 21.7 0.00 0.00 0.00 86 1003.2
20260505095423 70 217 10.4 21.7 0.00 0.00 0.00 86 1003.4
20260505094422 70 166 8.7 18.2 0.00 0.00 0.00 86 1003.4
20260505093440 70 181 8.7 17.4 0.00 0.00 0.00 86 1003.6
20260505092436 70 207 10.4 18.2 0.00 0.00 0.00 86 1003.6
20260505091448 70 199 11.3 21.7 0.00 0.00 0.00 86 1003.7
20260505084211 70 203 9.6 19.1 0.00 0.00 0.00 86 1003.6
20260505083222 70 196 10.4 19.1 0.00 0.00 0.00 85 1003.6
20260505082237 70 196 10.4 17.4 0.00 0.00 0.00 85 1003.7
20260505081226 70 192 9.6 15.6 0.00 0.00 0.00 85 1003.8
20260505080244 70 185 10.4 23.5 0.00 0.00 0.00 85 1003.8
20260505075250 71 187 11.3 23.5 0.00 0.00 0.00 84 1003.9
20260505074232 71 180 12.2 22.6 0.00 0.00 0.00 84 1004.0
20260505073212 71 187 11.3 25.2 0.00 0.00 0.00 83 1004.2
20260505072231 71 221 13.0 25.2 0.00 0.00 0.00 83 1004.3
20260505071228 71 192 11.3 21.7 0.00 0.00 0.00 82 1004.3
20260505063943 71 188 9.6 20.9 0.00 0.00 0.00 81 1004.7
20260505062936 71 196 10.4 20.0 0.00 0.00 0.00 81 1004.8
20260505060828 71 194 8.7 17.4 0.00 0.00 0.00 80 1004.8
20260505055758 71 206 9.6 20.0 0.00 0.00 0.00 79 1004.9
20260505054818 71 219 9.6 20.0 0.00 0.00 0.00 79 1005.1
20260505053813 71 184 8.7 16.5 0.00 0.00 0.00 79 1005.1
20260505052811 71 192 9.6 18.2 0.00 0.00 0.00 78 1005.2
20260505051830 72 202 9.6 20.9 0.00 0.00 0.00 78 1005.3
20260505050854 72 171 11.3 20.9 0.00 0.00 0.00 78 1005.3
20260505041644 72 177 7.0 17.4 0.00 0.00 0.00 76 1005.6
20260505040615 72 184 7.8 17.4 0.00 0.00 0.00 76 1005.7
20260505034458 72 155 6.1 13.0 0.00 0.00 0.00 75 1005.7
20260505033507 72 183 7.0 13.9 0.00 0.00 0.00 75 1005.9
20260505032517 72 190 7.0 13.9 0.00 0.00 0.00 74 1005.9
20260505031516 72 119 7.0 13.0 0.00 0.00 0.00 74 1005.8
20260505030538 72 174 6.1 13.0 0.00 0.00 0.00 74 1005.8
20260505025601 73 175 7.0 13.0 0.00 0.00 0.00 73 1005.8
20260505024545 73 175 6.1 13.0 0.00 0.00 0.00 73 1005.7
20260505023603 73 198 6.1 11.3 0.00 0.00 0.00 72 1005.6
20260505022619 73 162 5.2 13.9 0.00 0.00 0.00 72 1005.7
20260505021617 74 168 6.1 13.9 0.00 0.00 0.00 71 1005.6
20260505020623 74 195 6.1 13.9 0.00 0.00 0.00 70 1005.6
20260505015609 74 190 9.6 19.1 0.00 0.00 0.00 70 1005.4
20260505014553 74 165 10.4 21.7 0.00 0.00 0.00 69 1005.3
20260505011244 75 167 6.1 11.3 0.00 0.00 0.00 69 1005.5
20260505010303 75 186 7.0 14.8 0.00 0.00 0.00 68 1005.5
20260505005232 76 172 7.0 15.6 0.00 0.00 0.00 68 1005.5
20260505004239 76 186 7.0 15.6 0.00 0.00 0.00 67 1005.6
20260505003226 76 192 8.7 22.6 0.00 0.00 0.00 65 1005.6
20260505002206 77 193 8.7 22.6 0.00 0.00 0.00 65 1005.5
20260505001225 77 173 8.7 16.5 0.00 0.00 0.00 64 1005.6
20260505000218 77 191 8.7 20.0 0.00 0.00 0.00 63 1005.4
20260504234059 78 194 9.6 23.5 0.00 0.00 0.00 62 1005.7
20260504233058 78 206 11.3 23.5 0.00 0.00 0.00 61 1005.8
20260504225842 80 200 10.4 22.6 0.00 0.00 0.00 59 1006.4
20260504224810 80 183 13.0 26.1 0.00 0.00 0.00 58 1006.3
20260504223803 80 180 12.2 26.1 0.00 0.00 0.00 59 1006.3
20260504222821 80 170 11.3 22.6 0.00 0.00 0.00 58 1006.4
20260504221805 79 133 13.9 25.2 0.00 0.00 0.00 58 1006.5
20260504220809 80 167 13.9 25.2 0.00 0.00 0.00 56 1006.7
20260504215833 80 192 11.3 21.7 0.00 0.00 0.00 55 1006.7
20260504214815 80 173 11.3 21.7 0.00 0.00 0.00 56 1006.9
20260504213811 80 202 10.4 25.2 0.00 0.00 0.00 55 1006.9
20260504212744 80 178 13.0 25.2 0.00 0.00 0.00 54 1007.0
20260504210633 80 188 12.2 22.6 0.00 0.00 0.00 53 1007.5
20260504205624 80 147 10.4 21.7 0.00 0.00 0.00 55 1007.6
20260504204601 80 179 10.4 20.9 0.00 0.00 0.00 55 1007.8
20260504203554 80 146 11.3 20.9 0.00 0.00 0.00 54 1008.0
20260504202604 80 187 11.3 24.3 0.00 0.00 0.00 53 1008.2
20260504201546 79 172 13.0 24.3 0.00 0.00 0.00 53 1008.4
20260504195351 79 178 12.2 20.9 0.00 0.00 0.00 52 1008.9
20260504193211 79 185 11.3 23.5 0.00 0.00 0.00 50 1009.3
20260504192212 79 192 10.4 23.5 0.00 0.00 0.00 52 1009.4
20260504190013 78 180 11.3 24.3 0.00 0.00 0.00 53 1009.8